Theta_e
326 332 342 345 339 335 339 336 332 335 343 340 340 336 339 340 335 333 343 347 344 336 341 348 343 344 349 348 346 345 343 342 338 335 340 343 342 341 346 345 345 346 347 346 346 346 347 346 347
330 335 347 339 340 339 337 333 339 341 342 338 335 339 341 345 340 343 345 347 336 332 339 346 341 342 347 342 343 340 342 342 338 334 337 338 343 343 342 344 343 343 344 345 345 344 344 340 341
330 338 340 340 341 339 330 328 331 338 332 333 335 333 339 343 339 344 342 342 334 332 335 338 336 344 347 341 340 344 340 339 334 334 337 336 340 341 341 338 337 336 341 341 342 342 341 342 339
331 336 326 335 335 328 324 322 331 321 326 329 334 341 336 331 331 338 343 343 340 339 337 338 344 347 344 342 342 343 339 335 330 328 336 334 331 335 334 330 328 326 327 337 339 341 341 340 341
335 328 327 329 328 320 318 318 318 322 324 322 329 340 339 327 336 340 342 344 345 343 340 338 341 344 343 342 341 343 341 340 339 333 328 331 326 318 320 319 317 316 319 325 332 336 340 340 339
337 327 328 329 325 319 317 318 317 317 317 318 331 331 331 326 329 344 346 345 347 343 337 337 339 342 342 340 340 341 344 341 338 336 334 331 328 326 326 317 313 313 312 311 313 322 336 339 338
334 331 329 324 321 320 319 317 317 317 317 320 320 324 324 325 335 344 341 341 344 340 336 336 338 339 338 339 342 342 341 341 342 342 341 339 335 329 333 330 325 328 326 321 311 312 321 336 338
329 328 325 323 322 321 319 319 317 317 318 317 319 322 334 323 333 335 323 330 340 343 339 340 342 343 344 342 344 344 343 344 345 344 342 343 342 339 336 335 334 332 331 328 320 314 313 323 332
325 324 324 325 323 322 319 319 317 316 318 319 319 321 321 324 322 321 320 324 335 338 334 341 343 344 346 346 345 344 343 345 344 342 342 342 341 338 341 340 337 334 335 332 329 328 318 317 318
326 324 323 321 321 319 320 319 318 318 318 319 319 316 320 322 318 313 313 318 332 338 343 343 345 346 346 345 344 343 343 342 339 337 337 340 340 340 337 337 336 335 336 335 332 331 330 328 324
324 329 323 324 320 320 320 319 319 317 318 317 319 317 314 315 313 309 308 313 318 328 328 326 328 329 330 327 325 324 321 318 315 313 314 318 321 326 329 332 333 336 336 334 331 330 327 326 326
326 323 323 324 321 318 320 317 318 317 318 314 315 313 311 310 310 307 306 308 310 313 314 312 313 315 314 312 311 312 311 309 308 308 308 308 308 308 309 310 313 317 323 328 329 329 332 331 326
324 322 321 319 319 318 318 318 317 316 313 311 311 310 308 308 308 307 307 308 308 308 309 309 309 309 308 308 308 308 307 307 306 306 306 306 306 306 306 306 306 306 307 310 314 316 318 320 326
321 319 319 319 319 319 319 317 316 314 311 310 310 308 306 306 306 305 306 307 308 308 308 308 308 308 308 307 307 307 306 306 305 303 303 305 305 305 305 305 305 305 304 306 308 309 310 312 314
318 320 317 318 318 318 316 317 316 313 310 311 308 306 305 305 306 306 307 307 308 308 308 308 308 307 307 307 306 306 305 304 303 303 302 302 304 305 305 304 304 304 305 304 304 304 306 306 307
315 314 316 315 317 318 316 316 316 311 310 310 307 305 304 304 306 307 307 308 308 308 308 307 307 307 306 305 305 304 304 304 303 302 302 302 303 304 302 303 302 303 304 304 304 304 305 306 307
313 313 314 314 316 318 316 317 315 310 311 310 307 304 304 303 303 306 307 308 308 308 308 307 307 306 305 305 305 305 304 304 303 302 302 302 302 301 301 302 302 303 303 302 302 304 304 304 305
313 315 313 315 317 317 317 315 314 311 310 310 307 304 304 302 302 306 307 308 308 307 307 307 306 306 306 305 305 305 305 304 303 303 302 301 301 301 301 301 301 301 301 301 302 302 302 303 304
315 315 315 314 316 318 316 316 315 312 310 309 307 305 303 302 304 305 307 307 307 307 306 306 306 306 306 306 305 305 305 304 303 303 302 301 301 301 301 301 301 301 301 301 302 301 302 303 303
317 316 315 315 318 317 316 316 315 313 312 311 310 306 304 302 302 303 305 305 306 306 306 306 306 306 306 306 305 305 304 304 303 302 302 301 300 300 300 300 300 300 300 300 300 300 301 301 301
318 317 317 317 316 315 315 316 315 314 312 311 309 307 305 303 302 301 303 305 306 306 306 306 306 306 306 306 305 305 304 304 303 302 301 300 300 299 299 299 299 299 299 299 299 300 300 300 301
318 317 318 318 316 317 315 317 313 312 311 311 308 305 304 302 302 302 302 304 306 306 306 306 306 306 306 306 306 304 304 303 302 301 300 300 299 299 299 298 298 298 298 299 299 300 299 299 299
317 317 316 316 314 315 313 313 311 312 314 312 308 306 304 302 302 301 303 305 306 306 306 307 306 306 306 306 305 304 303 302 301 300 299 299 299 298 298 298 298 298 298 298 298 298 298 298 298
316 314 312 313 312 314 312 311 312 314 313 310 310 307 306 303 301 302 304 305 305 306 306 306 306 306 306 305 304 303 302 300 299 299 298 298 298 298 298 298 298 298 298 298 298 298 298 297 297
312 310 312 313 316 314 313 311 311 309 309 308 308 308 306 304 301 301 301 303 305 305 305 306 306 306 305 304 303 301 299 299 298 298 298 298 297 297 297 298 298 298 297 297 297 297 297 297 297
314 310 311 315 318 318 311 314 313 309 305 304 305 307 306 304 302 301 302 303 304 305 305 306 305 304 303 302 300 299 298 298 298 297 297 297 297 297 297 297 297 297 297 297 297 297 296 296 296
313 314 310 309 307 308 308 308 310 307 305 304 305 307 307 305 303 302 302 303 303 304 304 304 304 303 300 299 299 298 298 297 297 297 297 297 296 296 296 296 296 296 295 295 295 295 295 295 295
311 308 310 307 310 311 309 308 311 307 307 305 306 307 307 305 303 300 300 302 303 303 303 302 301 299 298 298 298 297 297 296 296 296 296 296 295 295 295 294 294 294 294 294 294 294 294 295 295
308 309 306 306 307 310 309 306 305 307 307 308 307 302 302 302 302 301 301 303 303 302 301 299 298 298 298 297 297 296 296 296 295 295 295 294 294 294 293 293 293 293 293 293 294 294 294 294 294
307 307 305 305 307 304 304 310 306 303 303 303 304 303 302 301 301 300 302 301 300 299 298 298 298 298 297 296 296 296 296 295 295 294 294 294 293 293 293 293 293 293 293 293 293 294 294 294 294
Wind_Speed
13 11 3 2 5 5 3 3 4 2 5 4 2 7 8 3 3 4 2 13 8 16 15 12 8 10 8 6 8 8 7 7 7 7 7 8 9 6 11 9 9 10 10 9 8 8 9 7 8
12 5 2 3 5 4 3 5 3 1 7 6 6 4 7 3 3 4 6 12 12 14 15 15 11 12 9 7 5 7 7 5 6 7 6 6 7 7 7 6 8 7 7 7 6 6 7 6 5
6 4 3 4 4 4 3 2 3 4 4 2 4 4 3 2 2 12 7 16 15 14 14 12 11 10 10 5 5 5 4 3 5 5 6 5 5 5 4 5 4 4 4 4 4 4 4 4 2
3 5 4 4 4 3 0 3 5 5 5 7 3 5 2 4 3 4 19 16 14 12 11 9 9 9 7 3 4 4 3 4 4 5 4 5 4 3 2 2 2 2 1 0 1 2 2 1 2
5 3 5 4 2 2 2 3 4 5 4 4 2 3 3 4 5 12 20 18 14 13 11 9 9 7 5 3 2 4 4 5 5 4 4 3 4 3 2 2 3 3 2 1 2 2 1 2 1
4 3 4 3 2 3 2 0 3 3 2 2 4 4 1 6 8 13 15 15 10 13 11 9 8 6 4 4 5 6 2 4 6 5 5 4 4 5 5 5 5 6 6 5 3 4 4 4 4
5 4 3 4 3 1 4 2 3 4 2 4 2 3 2 11 6 18 14 9 9 10 9 8 7 6 4 3 3 4 4 5 7 8 6 7 5 3 5 5 5 6 8 9 7 5 4 5 5
5 4 4 2 4 3 2 3 4 3 2 1 1 3 1 3 24 27 22 21 15 12 7 9 7 6 5 4 3 4 4 2 3 6 6 5 4 4 3 4 6 6 7 9 8 7 6 6 7
3 5 3 6 6 4 4 4 3 2 6 3 2 3 3 18 27 27 22 22 23 18 14 11 9 6 5 7 5 2 2 3 5 7 9 6 7 7 4 5 6 8 8 9 9 9 7 7 8
4 4 9 6 5 4 3 3 6 3 3 3 4 7 15 18 23 23 19 20 23 24 21 18 16 13 13 12 7 6 7 6 7 9 9 7 8 9 8 5 5 7 9 9 9 9 9 9 9
3 5 5 3 3 5 5 4 2 8 3 6 8 6 5 17 20 21 22 23 22 22 21 20 20 18 17 16 16 17 16 16 16 16 16 14 13 11 11 9 10 8 10 7 9 10 11 12 12
4 3 4 4 3 3 5 5 3 1 1 5 9 7 7 10 13 21 23 25 24 24 22 21 20 19 19 18 19 18 17 17 18 18 18 17 17 17 16 15 14 13 13 11 10 11 11 11 11
3 3 4 4 6 4 5 3 2 3 3 6 10 9 9 10 13 18 25 26 26 25 22 20 19 20 19 18 17 17 17 17 17 17 17 16 17 17 17 16 16 16 14 14 14 14 13 13 13
2 4 3 2 3 3 3 1 2 4 5 6 8 8 8 11 15 16 19 21 23 23 21 20 19 17 15 16 15 15 14 14 15 18 18 15 15 15 16 17 18 18 18 16 15 16 16 15 15
4 3 4 2 3 2 5 2 7 6 7 8 7 7 7 9 17 21 20 20 20 18 18 16 14 12 12 11 11 11 11 12 15 18 17 16 15 15 16 17 18 18 18 18 19 18 17 18 18
4 5 2 2 4 0 3 8 2 9 11 10 8 7 7 6 15 17 17 18 17 17 15 13 11 9 9 10 10 11 11 13 17 19 18 18 16 16 19 19 19 18 18 18 20 20 20 20 19
6 3 4 7 7 3 4 7 1 6 8 9 9 8 7 7 7 17 18 19 18 15 13 11 8 7 7 8 7 8 10 14 18 19 19 19 18 20 20 19 20 20 20 21 22 21 21 22 20
6 4 4 5 2 2 3 13 2 5 8 11 9 8 8 8 9 19 21 19 18 16 14 11 8 4 4 4 5 7 9 13 18 19 19 19 19 20 21 21 22 23 23 23 22 22 22 21 22
4 3 4 3 2 5 7 10 11 9 7 9 9 9 9 9 10 19 21 21 19 18 16 13 9 6 2 1 3 5 8 12 16 18 18 18 17 18 19 21 23 23 24 25 24 27 26 25 22
3 2 4 4 1 5 3 11 10 6 8 14 14 12 12 6 7 15 20 21 21 20 18 14 11 7 5 2 2 3 8 12 15 17 16 16 16 17 18 18 20 21 24 25 25 26 24 24 24
2 4 3 4 4 2 5 8 5 1 2 6 8 10 8 11 10 9 19 24 21 19 19 17 12 8 7 4 3 5 9 12 14 15 16 15 15 16 19 21 23 24 24 25 25 24 21 23 24
2 2 2 1 3 3 3 5 6 4 8 3 6 8 9 9 7 8 17 21 22 21 18 16 14 11 8 6 6 8 9 12 15 15 16 17 20 22 23 23 23 24 23 23 22 21 21 20 21
3 3 3 2 3 3 2 2 8 5 6 5 5 7 8 10 12 11 18 28 25 20 18 15 15 12 9 8 8 8 10 13 13 13 16 19 22 23 24 24 26 26 24 24 24 25 27 25 25
3 4 7 4 3 1 4 4 5 3 4 7 2 7 9 9 10 11 22 23 19 17 17 15 14 12 10 9 8 9 11 11 13 17 19 21 23 25 27 27 25 23 22 25 26 28 26 27 27
5 5 3 3 2 5 1 3 7 5 3 4 7 9 8 6 7 8 10 15 19 19 19 15 14 12 10 8 7 7 8 11 14 17 20 22 26 28 26 24 25 26 27 28 28 26 26 25 27
2 5 5 4 2 4 1 5 3 2 5 5 5 4 5 7 6 8 11 17 18 18 15 13 12 11 7 5 5 8 10 13 16 19 23 24 24 24 26 29 28 26 25 24 26 30 32 31 30
2 2 3 4 2 1 3 6 4 5 7 8 9 5 3 5 6 8 9 12 12 10 10 10 8 4 2 5 7 10 14 18 22 24 23 21 25 30 30 27 27 31 35 37 35 33 32 30 29
2 4 2 3 2 4 4 4 3 6 5 8 8 6 4 4 6 5 4 3 5 4 3 2 2 1 4 7 10 14 19 21 21 19 22 27 29 28 30 37 35 31 31 32 32 31 30 30 29
2 1 5 3 4 3 2 5 4 2 3 1 4 7 6 6 4 3 1 1 2 3 4 3 4 5 8 12 15 19 18 17 20 24 28 28 32 36 36 34 33 31 31 31 31 31 31 30 29
2 4 5 4 3 1 4 6 2 3 5 5 4 5 5 6 6 5 4 2 3 5 5 5 6 9 12 15 17 16 19 24 28 28 30 31 36 35 33 33 33 31 31 32 31 30 30 31 30
Wind_Direction
335 340 331 47 53 66 342 2 343 58 56 342 34 82 101 59 52 156 322 172 149 156 157 164 164 149 138 124 109 99 89 91 78 82 80 85 76 69 66 72 67 63 61 75 75 74 77 81 103
343 350 44 89 84 78 296 298 95 142 146 162 67 52 55 52 83 119 113 167 156 155 161 170 175 162 156 148 126 121 113 106 74 86 94 100 94 77 73 73 62 55 63 70 72 72 68 66 97
336 19 76 88 116 149 156 251 129 70 45 322 92 59 90 25 66 157 161 153 156 163 169 176 171 165 162 177 134 125 137 94 73 86 97 92 103 93 73 77 76 67 63 64 66 56 83 101 91
7 20 30 79 106 10 201 162 140 124 354 35 59 68 57 63 291 187 161 157 159 166 168 160 157 157 174 166 130 127 86 78 71 78 89 80 98 104 76 59 37 26 42 75 31 41 60 102 135
43 56 57 74 52 60 328 109 159 130 123 15 353 141 77 39 35 167 167 167 168 157 158 157 162 171 169 170 145 140 88 55 38 44 54 56 53 59 37 15 14 12 17 311 269 264 296 276 248
44 93 76 140 183 153 291 153 97 74 79 46 76 89 189 54 40 158 161 172 178 159 151 157 166 156 157 145 116 119 128 41 37 47 36 27 24 24 25 22 27 31 18 357 313 263 244 261 252
113 81 154 139 187 200 190 168 93 111 70 39 129 97 276 33 83 139 120 151 173 161 142 158 152 137 130 115 85 98 85 68 56 44 32 27 25 12 24 24 19 9 3 355 348 329 275 249 265
104 92 110 201 196 235 154 94 111 80 150 41 51 159 120 24 112 120 104 95 121 140 144 164 158 158 159 135 97 94 66 75 38 6 350 331 343 354 339 341 348 348 345 349 347 338 315 279 264
116 65 162 200 158 228 171 124 32 78 101 65 25 113 85 123 118 107 99 97 99 91 98 130 159 166 163 156 139 113 106 55 46 37 40 46 22 6 288 298 309 321 320 327 331 336 329 315 283
85 108 203 188 183 198 153 134 149 105 101 55 72 68 108 124 109 99 92 87 90 83 88 99 106 108 110 105 102 87 71 64 49 42 38 39 30 33 42 22 337 307 296 294 303 309 306 301 304
156 161 184 197 165 145 139 108 84 128 224 192 173 140 99 112 106 100 99 100 97 98 97 94 96 98 100 95 90 88 88 80 71 61 54 45 45 45 37 27 20 3 9 330 299 300 303 298 291
96 121 160 163 133 114 158 116 88 181 245 165 151 144 121 115 115 120 115 112 108 103 100 99 98 98 97 96 89 88 83 72 63 54 46 40 37 36 34 32 25 19 9 360 351 332 320 320 311
118 140 91 94 93 87 101 67 184 179 134 102 124 120 128 120 119 119 117 115 113 108 108 108 106 102 99 95 91 87 81 70 59 47 38 32 30 27 23 21 19 15 6 360 350 345 341 332 320
108 87 89 105 117 124 118 134 40 203 157 117 131 141 143 139 142 134 132 125 117 116 113 111 104 101 96 90 86 82 74 61 50 40 31 26 24 21 18 16 14 9 3 357 351 349 342 337 333
107 80 2 190 182 165 138 272 235 170 159 154 158 160 149 153 155 152 146 135 132 125 119 114 110 102 92 83 76 69 60 49 40 28 23 19 16 15 14 8 0 356 355 351 345 340 334 331 328
60 50 19 296 150 25 121 268 262 168 158 179 178 180 161 166 168 160 152 143 141 136 132 123 113 98 84 76 78 68 55 42 29 19 19 20 17 11 354 353 354 354 348 343 340 340 331 329 328
8 226 218 313 195 124 163 268 276 166 172 186 189 194 183 165 168 169 163 159 156 153 147 139 127 108 92 75 73 56 44 31 19 15 13 10 7 358 356 352 351 347 343 341 338 333 327 322 321
202 217 245 239 206 168 200 259 226 189 188 203 191 199 202 189 193 174 171 169 168 165 161 159 154 135 98 60 48 35 24 17 10 8 6 2 358 354 350 348 343 342 338 338 339 331 328 322 315
145 197 236 256 228 162 230 263 264 205 204 209 202 199 207 206 200 180 175 175 178 180 178 179 179 172 170 352 357 356 2 0 0 0 357 355 350 347 343 339 337 336 333 333 335 335 331 326 323
168 216 256 284 281 177 254 261 259 213 216 208 200 197 202 184 188 194 187 183 188 188 191 191 195 196 207 240 289 328 338 346 347 348 346 345 342 341 339 337 333 329 326 323 323 327 325 318 323
219 194 218 232 338 326 341 292 296 326 243 216 206 196 186 187 190 205 203 201 197 198 202 207 208 210 215 227 254 306 319 327 332 334 334 337 337 335 332 330 326 322 320 318 317 315 317 315 315
263 187 113 51 45 263 28 284 285 323 302 257 200 182 179 183 203 211 210 211 209 211 210 215 217 218 222 241 278 299 311 317 322 322 326 329 328 327 327 327 325 320 317 312 310 311 315 315 307
214 68 65 73 83 7 308 106 273 357 340 325 226 210 199 195 198 207 212 216 217 217 217 222 215 216 232 256 284 294 300 306 308 314 316 318 320 321 321 321 320 316 312 308 304 304 305 304 303
103 68 44 52 84 343 257 149 290 348 313 308 263 201 204 204 210 221 222 225 228 226 224 216 212 231 246 275 285 293 304 312 314 318 317 319 317 317 317 316 312 308 305 306 300 299 296 298 295
69 57 325 345 6 227 16 103 250 302 321 298 298 228 210 205 206 220 219 221 227 227 216 216 224 241 262 276 295 313 321 320 319 318 316 314 313 313 314 314 310 306 302 299 296 293 291 290 288
147 148 160 247 228 285 108 236 263 281 324 322 324 226 162 201 219 222 216 223 216 213 218 223 233 257 275 297 325 329 327 322 318 316 313 309 309 312 313 311 307 301 299 296 295 294 292 289 286
184 183 175 113 19 55 266 298 16 357 1 13 19 44 201 222 228 229 234 232 221 230 235 241 260 261 306 340 337 329 325 321 317 317 313 309 310 312 311 305 300 300 298 297 294 289 287 284 282
132 158 72 8 238 271 298 291 239 350 353 5 16 14 322 317 330 348 349 268 254 247 250 220 151 63 7 344 332 325 322 319 314 311 311 313 314 311 309 306 304 304 301 295 290 284 285 283 283
51 9 58 120 138 185 306 280 228 274 181 156 325 354 338 325 329 334 238 109 155 149 137 107 51 14 346 332 324 320 318 319 320 319 318 317 316 314 313 308 302 297 297 290 283 279 279 276 277
185 186 141 126 226 118 145 273 306 3 355 1 46 19 17 36 35 13 17 100 106 89 63 44 7 342 331 323 321 320 324 326 325 325 320 317 314 313 306 301 295 290 295 289 278 279 278 272 272